Time,TemperatureF,DewpointF,PressureIn,WindDirection,WindDirectionDegrees,WindSpeedMPH,WindSpeedGustMPH,Humidity,HourlyPrecipIn,Conditions,Clouds,dailyrainin,SoftwareType,DateUTC
2013-07-19 00:52:00,80.0,74.0,29.90,SW,214,5.0,9.0,83,0.00,,,0.00,,2013-07-19 04:52:00,
2013-07-19 01:02:00,80.0,75.0,29.89,SW,224,4.0,8.0,84,0.00,,,0.00,,2013-07-19 05:02:00,
2013-07-19 01:53:00,80.0,74.0,29.88,SW,223,5.0,12.0,82,0.00,,,0.00,,2013-07-19 05:53:00,
2013-07-19 02:01:00,81.0,74.0,29.87,SSW,209,5.0,11.0,80,0.00,,,0.00,,2013-07-19 06:01:00,
2013-07-19 02:52:00,81.0,74.0,29.86,SW,229,7.0,11.0,80,0.00,,,0.00,,2013-07-19 06:52:00,
2013-07-19 03:12:00,80.0,74.0,29.85,SSW,203,6.0,11.0,82,0.00,,,0.00,,2013-07-19 07:12:00,
2013-07-19 03:32:00,80.0,74.0,29.84,SW,223,7.0,13.0,82,0.00,,,0.00,,2013-07-19 07:32:00,
2013-07-19 03:43:00,80.0,74.0,29.83,SSW,205,7.0,16.0,82,0.00,,,0.00,,2013-07-19 07:43:00,
2013-07-19 03:53:00,80.0,74.0,29.83,SW,232,7.0,13.0,82,0.00,,,0.00,,2013-07-19 07:53:00,
2013-07-19 04:01:00,80.0,74.0,29.83,SW,223,6.0,12.0,82,0.00,,,0.00,,2013-07-19 08:01:00,
2013-07-19 04:12:00,80.0,74.0,29.83,SSW,209,6.0,10.0,82,0.00,,,0.00,,2013-07-19 08:12:00,
2013-07-19 04:33:00,80.0,74.0,29.83,SW,223,6.0,15.0,82,0.00,,,0.00,,2013-07-19 08:33:00,
2013-07-19 04:43:00,80.0,74.0,29.83,WSW,238,7.0,13.0,83,0.00,,,0.00,,2013-07-19 08:43:00,
2013-07-19 04:52:00,80.0,74.0,29.82,SSW,212,5.0,13.0,83,0.00,,,0.00,,2013-07-19 08:52:00,
2013-07-19 05:02:00,80.0,74.0,29.82,SW,222,7.0,14.0,83,0.00,,,0.00,,2013-07-19 09:02:00,
2013-07-19 05:32:00,80.0,74.0,29.82,SW,225,5.0,11.0,83,0.00,,,0.00,,2013-07-19 09:32:00,
2013-07-19 06:32:00,80.0,75.0,29.82,SW,225,5.0,11.0,86,0.00,,,0.00,,2013-07-19 10:32:00,
2013-07-19 06:43:00,80.0,75.0,29.82,SSW,213,6.0,14.0,86,0.00,,,0.00,,2013-07-19 10:43:00,
2013-07-19 06:52:00,80.0,75.0,29.82,South,190,7.0,14.0,86,0.00,,,0.00,,2013-07-19 10:52:00,
2013-07-19 07:33:00,81.0,76.0,29.82,WSW,237,6.0,10.0,84,0.00,,,0.00,,2013-07-19 11:33:00,
2013-07-19 08:33:00,84.0,77.0,29.82,SSW,205,7.0,13.0,80,0.00,,,0.00,,2013-07-19 12:33:00,
2013-07-19 08:52:00,85.0,78.0,29.82,SW,223,5.0,12.0,79,0.00,,,0.00,,2013-07-19 12:52:00,
2013-07-19 09:02:00,85.0,78.0,29.82,SSW,196,7.0,15.0,79,0.00,,,0.00,,2013-07-19 13:02:00,
2013-07-19 09:53:00,87.0,78.0,29.82,SW,224,6.0,15.0,74,0.00,,,0.00,,2013-07-19 13:53:00,
2013-07-19 10:43:00,89.0,79.0,29.80,SW,231,5.0,15.0,72,0.00,,,0.00,,2013-07-19 14:43:00,
2013-07-19 10:52:00,89.0,78.0,29.80,SW,224,8.0,14.0,71,0.00,,,0.00,,2013-07-19 14:52:00,
2013-07-19 11:11:00,90.0,78.0,29.79,SW,217,8.0,17.0,69,0.00,,,0.00,,2013-07-19 15:11:00,
2013-07-19 11:32:00,90.0,79.0,29.80,WSW,242,8.0,15.0,70,0.00,,,0.00,,2013-07-19 15:32:00,
2013-07-19 12:01:00,90.0,78.0,29.78,SSW,207,9.0,15.0,68,0.00,,,0.00,,2013-07-19 16:01:00,
2013-07-19 12:11:00,90.0,78.0,29.78,SW,225,10.0,16.0,68,0.00,,,0.00,,2013-07-19 16:11:00,
2013-07-19 12:43:00,91.0,79.0,29.77,WNW,288,8.0,18.0,68,0.00,,,0.00,,2013-07-19 16:43:00,
2013-07-19 12:52:00,91.0,79.0,29.76,SSW,205,7.0,15.0,68,0.00,,,0.00,,2013-07-19 16:52:00,
2013-07-19 13:43:00,92.0,79.0,29.74,SSW,192,10.0,19.0,65,0.00,,,0.00,,2013-07-19 17:43:00,
2013-07-19 13:52:00,92.0,77.0,29.74,SSW,196,13.0,22.0,62,0.00,,,0.00,,2013-07-19 17:52:00,
2013-07-19 14:32:00,92.0,76.0,29.72,WSW,238,13.0,27.0,60,0.00,,,0.00,,2013-07-19 18:32:00,
2013-07-19 14:42:00,92.0,76.0,29.72,SW,219,12.0,27.0,60,0.00,,,0.00,,2013-07-19 18:42:00,
2013-07-19 14:52:00,92.0,77.0,29.72,WSW,238,12.0,22.0,61,0.00,,,0.00,,2013-07-19 18:52:00,
2013-07-19 16:01:00,92.0,77.0,29.69,SSW,209,10.0,21.0,62,0.00,,,0.00,,2013-07-19 20:01:00,
2013-07-19 16:11:00,92.0,76.0,29.69,SSW,211,11.0,27.0,60,0.00,,,0.00,,2013-07-19 20:11:00,
2013-07-19 16:43:00,91.0,76.0,29.69,SSW,201,9.0,25.0,62,0.00,,,0.00,,2013-07-19 20:43:00,
2013-07-19 17:52:00,91.0,76.0,29.67,SSW,198,8.0,25.0,62,0.00,,,0.00,,2013-07-19 21:52:00,
2013-07-19 18:32:00,90.0,76.0,29.67,SSW,205,11.0,18.0,63,0.00,,,0.00,,2013-07-19 22:32:00,
2013-07-19 18:52:00,89.0,74.0,29.69,WSW,252,8.0,19.0,62,0.00,,,0.00,,2013-07-19 22:52:00,
2013-07-19 19:01:00,84.0,69.0,29.77,NE,35,5.0,20.0,61,0.00,,,0.00,,2013-07-19 23:01:00,
2013-07-19 19:11:00,84.0,69.0,29.77,NE,35,5.0,20.0,61,0.00,,,0.00,,2013-07-19 23:11:00,
2013-07-19 20:11:00,70.0,68.0,29.73,SW,218,3.0,10.0,94,1.06,,,1.42,,2013-07-20 00:11:00,
2013-07-19 20:32:00,71.0,69.0,29.72,SW,218,0.0,2.0,95,0.94,,,1.46,,2013-07-20 00:32:00,
2013-07-19 20:43:00,71.0,69.0,29.77,West,274,4.0,12.0,92,0.91,,,1.46,,2013-07-20 00:43:00,
2013-07-19 20:52:00,71.0,67.0,29.75,ENE,61,4.0,12.0,87,0.59,,,1.46,,2013-07-20 00:52:00,
2013-07-19 21:01:00,70.0,68.0,29.73,SSW,201,1.0,7.0,92,0.12,,,1.46,,2013-07-20 01:01:00,
2013-07-19 21:11:00,70.0,68.0,29.73,SSW,201,1.0,7.0,92,0.12,,,1.46,,2013-07-20 01:11:00,
2013-07-19 21:22:00,70.0,68.0,29.73,SSW,201,1.0,7.0,92,0.12,,,1.46,,2013-07-20 01:22:00,
2013-07-19 21:32:00,70.0,68.0,29.73,SSW,201,1.0,7.0,92,0.12,,,1.46,,2013-07-20 01:32:00,
2013-07-19 22:02:00,71.0,70.0,29.70,SW,234,6.0,12.0,96,3.23,,,4.76,,2013-07-20 02:02:00,
2013-07-19 22:11:00,72.0,71.0,29.73,SW,222,5.0,13.0,96,2.36,,,4.80,,2013-07-20 02:11:00,
2013-07-19 22:22:00,71.0,68.0,29.70,SW,219,12.0,21.0,91,1.73,,,5.12,,2013-07-20 02:22:00,
2013-07-19 22:43:00,70.0,68.0,29.71,SSW,210,10.0,15.0,95,0.51,,,5.28,,2013-07-20 02:43:00,
2013-07-19 22:52:00,70.0,68.0,29.70,SW,227,9.0,16.0,95,0.51,,,5.28,,2013-07-20 02:52:00,
2013-07-19 23:02:00,70.0,69.0,29.71,SSW,207,10.0,21.0,96,0.71,,,5.47,,2013-07-20 03:02:00,
2013-07-19 23:44:00,70.0,68.0,29.70,South,190,6.0,12.0,95,0.24,,,5.51,,2013-07-20 03:44:00,